Wind_Speed
38 40 39 36 35 34 33 34 36 37 36 37 37 37 36 36 38 39 40 41 42 43 44 44 45 47 48 49 49 49 48 48 48 49 50 51 52 54 55 56 56 56 56 57 57 56 55 54 54 53 53 53 52 50 48 47 46 45 43 43 43 44 46 47 49 50 49 46 42 40 40 40 39 38 37 38 38 38 37 35 34 37 41 41 40
41 42 41 39 37 35 33 32 33 36 36 35 35 36 35 35 37 38 39 40 42 42 42 43 43 45 46 48 50 50 50 50 49 49 49 50 52 53 54 55 56 57 58 58 59 59 59 58 57 56 55 55 54 52 51 49 48 47 45 44 44 44 45 47 49 51 51 49 46 43 42 42 42 40 39 39 41 43 44 43 43 44 46 45 43
43 43 43 41 39 36 34 32 32 34 35 35 34 34 34 34 35 36 37 39 40 41 42 42 42 43 44 46 48 49 50 51 50 50 50 50 50 52 54 55 56 57 58 59 60 61 61 61 61 60 59 58 56 55 54 52 51 50 49 46 45 45 45 46 47 50 51 51 49 46 45 45 44 42 41 42 43 46 48 48 47 46 46 46 45
44 45 44 42 40 38 36 34 34 34 35 35 35 34 34 34 34 35 37 38 39 39 40 41 41 42 44 45 46 47 48 49 50 50 51 51 51 51 52 54 55 57 58 59 60 61 61 62 63 64 63 62 61 59 57 55 54 53 52 50 48 47 46 45 45 47 50 52 51 48 46 46 45 44 44 44 44 46 48 50 50 48 47 46 46
45 46 44 42 40 38 36 36 36 35 35 35 35 35 35 35 35 36 37 38 38 39 39 40 40 41 43 44 46 46 46 47 47 48 50 51 52 52 52 52 54 56 58 59 60 61 61 62 64 65 66 66 66 65 62 60 57 56 55 53 51 50 49 48 47 45 48 53 53 50 48 47 46 44 45 45 45 46 48 51 52 50 49 48 47
47 47 45 42 40 38 37 37 37 37 37 36 36 36 36 36 36 37 38 39 39 39 39 39 40 40 41 43 44 45 45 45 46 47 48 49 50 51 52 53 53 54 56 58 59 60 61 62 64 65 66 68 69 69 67 65 62 59 58 56 54 53 52 52 51 48 47 51 54 53 51 50 48 46 46 47 47 47 49 51 53 51 51 51 49
47 47 44 42 39 38 37 37 37 38 37 37 38 38 38 38 38 38 39 40 40 40 40 40 40 40 41 41 42 44 45 46 46 46 46 47 48 49 51 52 53 54 55 56 57 59 60 61 63 64 66 67 69 70 70 69 67 64 61 59 57 55 55 55 54 51 49 50 54 56 54 52 50 49 49 48 47 48 50 53 54 53 52 52 50
47 46 43 40 39 38 38 38 38 38 37 38 38 38 40 41 41 41 41 41 40 40 40 40 41 41 41 41 41 42 44 46 47 47 46 47 47 48 49 51 52 53 53 54 56 57 59 61 62 63 65 66 68 70 71 71 70 69 67 64 60 57 57 56 55 53 51 51 55 57 55 52 50 49 50 50 48 49 53 54 54 55 55 54 52
46 44 42 39 39 38 38 38 38 38 38 39 39 39 40 41 41 42 42 42 42 41 40 40 41 41 41 42 42 42 42 44 46 46 47 47 48 48 49 50 51 52 52 53 54 56 57 59 61 62 63 65 66 68 70 71 71 71 71 69 65 61 59 58 56 55 53 53 55 57 56 54 52 49 49 51 51 51 53 54 55 57 57 55 53
44 42 41 40 39 38 38 39 38 39 39 40 40 40 41 41 42 42 42 42 42 42 42 41 41 41 41 42 42 43 43 43 44 45 46 47 48 48 49 50 51 52 53 53 54 55 56 57 59 60 61 63 65 67 68 70 70 71 72 72 70 67 64 61 59 57 55 53 56 58 56 55 54 52 50 52 53 52 51 52 55 58 58 56 55
42 41 40 40 39 39 39 39 39 40 40 41 41 41 42 42 42 42 41 41 41 42 42 42 42 42 42 42 42 42 43 44 44 44 45 46 48 48 49 50 51 51 53 54 55 56 56 56 57 59 60 61 62 64 66 68 69 70 71 71 71 70 68 66 63 61 58 55 56 57 56 56 56 54 50 51 54 54 51 48 51 57 60 58 58
41 41 41 41 40 39 39 39 40 40 41 41 42 42 42 42 42 42 41 41 41 42 42 42 42 42 42 42 42 42 43 44 44 44 45 45 47 48 49 50 51 52 53 54 55 57 57 58 58 58 59 60 60 62 63 66 68 69 70 70 70 70 70 69 68 65 62 59 57 57 57 59 59 57 53 52 53 55 54 47 46 54 61 60 60
41 42 42 41 41 41 40 40 41 41 42 42 42 42 42 42 42 42 42 41 42 42 42 42 42 43 43 43 43 44 44 45 45 46 46 46 46 47 48 50 51 52 53 54 55 57 58 59 59 60 60 60 60 60 61 63 65 67 69 69 69 70 70 71 71 69 67 63 60 58 59 61 62 61 59 57 55 55 56 53 48 51 58 62 63
42 42 42 42 42 41 41 42 42 42 43 43 43 43 43 43 43 42 42 42 42 43 43 42 43 43 43 44 44 45 46 46 46 47 47 47 47 47 48 49 50 51 53 55 56 57 58 59 60 61 61 61 61 61 61 62 63 64 67 68 68 69 70 71 72 72 70 68 65 62 62 62 62 62 62 61 59 57 58 59 57 54 56 61 63
43 43 43 43 42 43 43 43 43 43 43 43 44 44 44 44 44 43 42 43 43 44 43 43 43 44 44 44 45 46 47 47 47 48 48 48 48 48 48 49 49 50 51 53 55 57 58 60 60 61 61 61 62 62 61 61 61 62 64 66 68 69 69 71 73 73 73 71 69 67 66 64 63 62 61 60 60 60 60 61 62 60 58 60 64
44 44 44 44 44 44 44 44 44 44 44 44 45 45 45 45 45 44 43 43 44 44 44 43 44 44 45 45 45 47 47 47 47 48 48 48 48 48 49 49 50 50 51 52 54 56 58 59 60 60 61 61 62 62 62 61 61 61 62 64 66 68 69 71 73 74 74 74 73 71 69 67 65 63 61 59 59 61 61 62 62 63 62 61 64
46 45 45 45 45 45 45 45 45 44 44 45 45 45 45 45 45 45 45 45 45 45 45 45 45 45 45 45 46 47 48 47 47 47 48 48 48 48 49 50 51 51 52 52 52 53 54 56 58 59 60 61 62 61 61 61 60 61 61 63 64 66 68 70 73 74 75 75 74 73 72 70 67 66 64 61 60 60 61 61 62 64 65 63 64
47 46 46 46 46 46 46 45 45 45 46 46 46 46 46 46 45 45 46 46 46 46 46 46 46 46 46 46 46 47 48 48 47 47 47 47 47 48 49 50 51 51 51 51 50 49 50 52 54 56 58 60 61 60 60 59 59 60 61 62 63 64 67 69 70 73 75 75 75 74 74 72 70 68 66 64 61 60 60 60 62 64 65 64 66
48 48 48 47 47 47 46 46 46 46 46 46 47 46 46 46 46 46 47 47 47 47 48 48 48 48 48 48 47 47 47 48 48 47 46 46 45 46 48 48 49 49 49 48 48 47 47 48 49 51 54 56 58 58 58 57 57 59 60 61 61 63 66 67 67 70 73 75 75 75 75 74 72 70 68 66 63 61 60 61 61 62 64 66 67
49 49 48 48 48 48 47 47 47 47 47 47 46 46 46 46 47 47 48 48 48 48 49 49 49 49 49 48 47 46 46 46 47 46 45 44 43 43 44 45 46 45 45 45 45 44 44 44 45 47 49 51 53 55 55 56 56 58 59 60 60 62 65 65 65 67 71 74 76 76 75 75 73 71 70 68 64 62 62 62 61 61 63 66 69
50 50 49 49 49 48 48 48 47 47 47 46 46 47 47 47 48 48 48 49 49 49 49 49 49 49 48 47 46 46 45 44 44 44 42 41 40 40 41 42 41 41 41 42 41 41 41 40 41 43 44 46 48 50 52 53 54 56 58 60 61 62 62 63 64 66 68 71 75 76 75 75 74 72 70 69 65 63 63 64 63 62 63 67 70
51 50 50 50 50 49 48 48 48 47 47 47 47 47 47 47 48 49 49 49 49 49 49 48 48 47 47 46 45 45 44 42 41 40 39 38 37 37 38 37 36 37 38 38 37 37 37 37 38 39 40 41 44 45 47 50 51 53 57 59 60 60 60 61 63 64 65 68 73 76 76 75 74 72 71 69 66 64 64 64 63 63 64 67 71
52 51 51 51 50 49 49 49 48 48 47 47 48 48 48 48 49 49 49 49 49 49 48 47 47 46 46 45 43 42 41 40 38 37 36 35 34 34 34 33 32 33 34 34 32 32 33 33 34 35 35 37 39 41 43 45 47 50 54 56 57 57 57 58 60 62 64 65 70 74 76 76 75 73 71 69 67 64 63 64 64 64 66 68 71
53 52 51 51 50 49 49 49 48 48 48 47 48 48 48 48 49 49 48 47 47 48 47 46 46 45 44 43 41 39 38 37 35 34 33 31 30 30 29 29 29 29 30 29 28 27 28 29 29 29 30 32 34 36 38 40 42 45 48 51 53 53 53 54 57 60 62 63 66 72 76 77 75 73 71 68 67 65 64 64 64 66 67 69 70
53 52 51 50 50 49 49 49 49 48 48 48 48 48 48 48 49 49 47 46 46 45 45 44 44 42 41 40 38 37 35 33 31 29 28 27 26 25 25 24 24 25 24 24 23 23 24 25 25 25 26 28 30 31 33 35 37 39 42 46 48 50 50 52 55 57 59 61 64 69 75 77 75 74 71 69 68 67 66 65 65 66 68 70 71
52 52 51 50 50 49 49 49 49 49 48 48 48 48 47 47 48 47 46 45 44 43 42 42 41 39 37 36 35 34 31 29 26 25 23 22 21 20 20 20 20 19 19 19 19 19 19 20 21 22 23 24 25 27 29 30 32 35 38 41 44 46 48 49 51 53 56 59 61 66 73 76 76 75 74 71 69 68 67 66 65 65 67 70 73
52 52 51 50 50 49 49 49 49 49 48 48 47 47 47 46 47 46 45 44 43 41 40 40 38 36 34 32 31 29 26 23 21 19 18 16 16 15 15 15 15 15 15 15 16 16 16 17 18 18 20 21 22 23 24 25 27 30 33 36 39 41 44 45 47 49 52 56 59 64 71 77 78 77 75 73 71 69 67 66 65 65 67 71 73
52 51 51 50 50 49 49 49 48 48 48 47 47 47 46 45 45 45 44 43 42 40 39 37 35 32 30 28 26 23 20 17 15 14 12 11 11 11 11 11 11 12 12 13 14 14 15 15 16 16 17 18 19 21 21 23 24 26 28 31 34 37 39 41 43 46 50 54 58 62 69 75 78 77 75 73 72 70 67 66 66 66 68 71 74
51 51 50 50 49 49 48 48 48 48 48 47 47 46 45 45 45 45 43 41 40 39 37 34 31 28 26 24 21 18 15 13 11 10 8 8 7 6 5 6 7 7 8 10 11 11 12 13 13 15 16 16 17 18 19 20 21 23 25 29 32 33 35 37 40 44 47 50 55 59 65 72 77 78 76 74 73 71 68 67 67 68 68 71 74
51 51 50 49 48 48 48 48 47 47 47 47 47 45 44 44 45 43 40 39 38 36 33 29 27 24 21 19 16 13 11 8 7 6 5 5 4 2 2 3 5 6 6 7 8 9 10 11 12 14 14 13 14 16 16 17 19 21 23 25 27 30 31 33 37 42 44 46 51 57 63 70 76 78 77 75 74 72 70 69 69 69 70 72 73
51 50 49 48 48 48 48 47 47 46 46 46 46 45 43 43 42 40 37 36 35 31 28 25 22 19 16 14 11 8 6 4 3 3 3 4 3 2 2 3 4 4 5 6 6 6 6 8 10 11 10 10 11 13 14 16 17 19 20 20 23 27 30 31 35 41 44 47 51 55 61 68 73 76 77 76 75 74 73 71 71 71 71 72 74
50 49 48 47 47 47 47 46 45 45 45 44 43 43 42 41 39 37 35 33 30 26 23 20 17 14 11 9 6 5 5 5 4 3 4 4 3 2 1 3 3 4 5 5 5 6 6 6 6 7 7 8 9 10 13 16 18 19 21 21 22 26 29 30 33 39 43 47 49 50 55 61 68 73 76 76 76 76 75 73 73 73 73 73 74
49 48 47 47 46 47 46 45 44 43 43 41 40 40 39 37 35 33 31 28 24 21 19 16 12 9 7 6 7 7 7 6 5 5 4 2 1 1 3 4 2 2 2 1 1 1 3 4 5 5 6 7 8 10 12 16 19 22 24 25 26 28 30 30 32 36 40 44 46 47 50 55 61 67 72 74 75 76 76 75 74 74 74 74 75
48 47 46 46 46 46 45 44 42 41 40 39 38 37 35 33 31 29 26 22 19 17 15 12 9 7 7 9 10 9 7 4 3 4 2 2 2 1 2 3 1 1 3 5 4 3 4 4 5 7 9 11 12 12 14 16 17 20 23 25 27 28 30 31 32 34 36 40 42 44 47 51 55 60 65 70 73 74 75 76 76 75 75 75 75
47 46 45 45 45 44 44 42 41 39 37 36 35 33 32 30 27 24 20 18 16 14 11 9 7 7 9 11 11 9 6 4 3 3 1 1 2 2 1 2 3 3 4 5 7 6 4 3 5 9 12 13 14 13 13 14 15 15 17 19 21 23 25 27 30 31 33 35 37 40 43 47 51 55 59 65 70 72 73 76 77 76 75 76 77
46 45 44 44 44 43 42 40 39 37 35 33 32 30 28 26 23 19 17 14 12 11 10 8 8 10 12 12 11 7 4 2 5 5 3 2 4 4 2 2 4 4 4 3 4 4 3 4 7 10 12 13 15 14 12 11 12 13 13 14 15 17 18 21 24 27 29 31 32 36 39 42 46 50 53 59 65 69 72 75 77 77 78 79 80
45 44 43 42 42 41 40 38 36 34 32 30 28 26 24 21 19 16 14 12 11 11 11 10 10 12 14 13 10 6 3 3 6 6 4 3 6 4 1 3 4 4 4 4 5 5 5 7 8 8 9 12 15 16 14 10 9 9 9 10 11 13 14 16 18 21 25 27 29 32 35 38 42 46 50 55 60 65 69 74 76 78 80 82 83
44 43 42 41 40 39 37 34 32 31 29 27 24 22 20 18 16 14 12 12 12 13 13 11 11 15 16 12 8 7 8 9 9 8 5 5 7 3 3 6 7 7 7 7 7 7 8 8 7 6 7 9 12 13 12 10 10 10 9 10 10 10 11 13 15 17 20 23 26 29 32 35 39 43 47 51 55 60 65 69 74 77 80 83 85
42 41 40 39 37 35 33 31 29 27 25 22 20 19 17 16 15 13 12 12 13 14 15 13 12 16 18 13 8 10 14 15 14 11 8 7 9 4 3 6 8 9 9 9 10 10 9 10 10 9 8 8 8 10 12 12 11 10 8 8 9 9 10 12 13 14 16 19 22 26 29 32 36 40 44 48 51 56 60 64 70 76 80 83 86
40 38 37 36 34 32 30 28 25 23 21 19 18 16 15 15 15 13 12 13 15 16 17 15 13 17 20 17 11 11 14 15 16 15 10 9 10 9 6 7 9 10 11 11 12 12 12 12 12 12 11 10 10 11 13 14 14 12 10 9 9 8 9 11 12 13 14 15 18 21 25 29 32 35 39 42 45 49 53 57 62 68 74 78 81
37 36 35 33 31 28 26 24 22 20 18 16 15 15 15 15 14 12 12 15 17 19 19 18 16 17 21 21 15 11 10 13 15 16 14 12 12 13 12 10 9 10 11 13 14 14 14 15 14 13 12 12 12 13 13 13 14 15 15 14 12 11 10 11 13 14 16 16 16 18 20 23 27 30 33 36 39 42 45 49 53 58 63 67 72
34 33 32 30 27 25 23 21 19 17 15 14 14 14 15 15 14 12 12 15 19 20 20 19 17 17 20 23 20 16 13 13 14 15 16 16 16 17 17 16 15 13 13 15 16 16 16 16 16 15 14 14 13 13 13 14 15 16 17 17 16 15 15 15 16 17 18 18 18 18 19 20 22 25 27 30 33 36 39 42 46 50 54 58 62
31 30 29 27 24 22 20 18 16 15 13 13 13 14 14 14 13 12 12 15 20 22 20 19 20 19 19 22 23 21 19 17 15 13 14 16 17 19 19 20 20 19 17 17 18 18 19 18 17 17 18 18 17 16 17 17 17 16 16 16 16 16 16 17 17 18 19 20 20 21 21 22 23 24 26 27 30 32 35 37 40 43 47 50 54
29 27 25 23 21 19 17 15 13 12 12 12 13 14 14 13 12 13 14 16 19 21 20 21 23 22 21 22 25 25 23 22 20 17 15 15 16 19 20 21 22 22 21 19 19 20 20 20 20 20 21 22 23 23 23 22 21 20 19 20 20 21 21 21 22 22 23 23 24 25 25 26 26 28 29 30 32 33 35 37 39 42 44 47 49
26 25 22 20 17 15 13 11 10 11 12 13 13 14 14 13 12 13 14 16 16 17 18 20 23 24 24 25 26 26 26 26 24 23 22 20 19 20 21 22 23 24 24 23 23 23 22 22 21 22 22 23 24 25 26 26 27 28 28 28 28 28 27 27 27 27 28 29 29 30 31 32 32 33 34 35 37 38 40 41 43 45 46 48 50
24 22 20 17 14 12 11 10 12 13 14 14 15 15 15 15 15 14 15 16 17 18 19 19 20 21 24 25 26 28 29 29 27 27 26 25 24 23 23 23 25 26 27 28 28 28 28 27 26 25 25 25 25 25 26 26 27 28 29 29 29 28 28 28 29 30 31 32 33 35 36 37 39 40 41 42 43 45 46 48 49 51 52 54 55
22 20 17 14 12 11 11 12 14 16 16 17 18 19 18 19 20 19 19 19 19 19 21 21 20 20 22 24 25 26 28 30 30 30 28 28 28 27 26 26 25 25 26 28 30 31 32 33 32 31 31 30 30 30 30 30 29 29 30 30 30 30 31 31 32 33 34 35 36 38 40 41 43 45 47 48 50 51 53 54 56 57 59 60 61
20 18 15 13 12 11 12 14 16 18 18 19 20 20 20 20 21 20 20 19 17 18 20 23 24 24 23 23 24 25 27 28 30 31 30 29 30 30 31 31 30 28 28 29 30 32 34 35 36 36 36 36 36 36 36 36 36 36 35 35 35 35 36 36 37 38 39 40 41 42 43 44 46 47 49 51 53 55 57 59 60 62 64 66 68
18 16 14 13 13 12 13 15 18 20 21 20 19 20 20 20 20 21 21 21 21 20 20 22 25 27 27 27 27 27 28 28 29 29 30 31 31 31 32 33 33 33 33 34 35 36 37 38 39 40 40 40 41 41 41 42 43 43 43 43 43 43 43 44 45 46 47 48 48 49 50 50 51 53 54 56 57 58 60 62 64 66 68 70 72
16 15 14 14 14 13 14 16 19 22 23 21 20 19 19 20 21 22 22 22 21 20 19 20 22 24 27 29 30 31 31 31 31 32 32 33 34 34 35 35 35 36 37 37 38 39 40 42 43 44 45 45 46 46 47 47 48 49 49 50 51 51 52 52 53 53 54 55 56 56 57 58 59 60 61 63 64 65 66 68 69 71 72 74 76
15 14 14 14 14 13 13 16 21 25 26 24 21 19 18 18 19 20 21 21 21 21 21 23 25 25 26 27 29 30 31 32 33 35 36 37 38 39 40 40 40 41 41 41 41 41 41 42 44 45 47 48 49 50 51 52 52 53 54 55 56 58 59 60 60 61 62 62 63 64 64 65 67 68 69 70 71 72 74 75 76 78 79 81 82
Wind_Direction
290 294 293 288 284 281 278 276 275 275 274 273 273 273 271 269 268 267 268 267 268 267 266 265 265 264 264 264 263 263 262 260 257 255 253 252 251 250 249 248 247 246 245 243 243 242 242 241 241 239 237 236 237 237 238 239 238 237 236 237 237 236 236 236 236 235 232 231 231 230 230 232 231 229 230 230 230 230 230 228 230 237 239 237 235
296 295 293 290 286 282 278 275 275 276 275 273 273 272 271 269 268 268 268 268 268 269 268 267 265 264 263 263 263 263 263 262 260 258 256 253 252 251 250 249 248 247 246 245 244 243 242 242 241 240 239 238 239 239 240 241 240 237 236 236 237 237 237 237 237 236 234 230 230 231 231 231 231 229 229 230 228 228 228 224 221 225 231 233 234
297 294 292 290 287 285 284 281 280 280 280 279 277 275 273 271 270 269 267 266 266 267 268 267 266 265 263 263 262 262 262 262 262 261 259 257 255 252 251 250 250 249 247 246 245 244 243 242 241 241 240 239 240 240 241 241 240 238 236 235 237 238 237 238 238 237 235 230 228 230 232 230 230 230 229 229 228 229 230 229 226 226 228 230 233
295 292 290 288 288 287 287 287 285 283 282 282 281 281 280 278 277 274 272 270 269 267 267 267 266 265 264 263 263 262 261 261 261 261 260 259 258 256 253 251 251 250 249 248 247 245 244 243 242 242 241 240 240 241 241 241 240 239 238 236 236 237 237 238 239 239 237 232 228 229 231 230 230 230 230 229 229 230 232 232 231 232 231 231 234
292 289 287 286 287 288 288 288 288 286 284 284 284 284 284 283 281 279 277 275 274 272 271 269 268 266 265 264 264 263 263 262 261 260 259 259 259 258 257 255 252 251 250 249 248 247 246 244 243 242 242 242 241 241 242 242 241 240 239 237 237 237 237 238 239 240 239 236 230 227 227 229 230 231 232 232 231 232 233 233 233 233 233 233 234
288 285 285 286 286 288 289 289 288 288 288 287 288 287 286 285 283 281 279 278 277 276 274 273 271 269 267 265 265 265 265 264 263 261 260 259 258 258 258 257 255 253 252 250 249 248 247 246 245 244 243 242 242 242 242 241 241 241 240 239 237 237 237 238 239 240 240 237 232 227 225 227 230 232 234 234 234 234 234 235 234 234 234 234 235
284 282 283 285 286 287 288 287 287 287 288 288 288 289 288 287 285 283 282 281 280 279 278 276 275 273 270 268 266 266 265 265 264 263 262 261 259 258 257 257 256 255 254 252 251 250 249 247 246 245 244 243 242 243 242 241 241 241 240 239 237 237 237 237 238 239 240 238 232 229 227 227 229 233 235 234 235 237 237 235 234 234 235 235 235
280 280 282 284 286 287 286 285 286 286 287 287 287 288 289 289 288 287 285 284 282 281 280 278 277 275 274 272 269 267 265 265 265 264 263 261 260 259 258 257 257 256 255 253 252 250 250 249 247 246 245 244 243 243 242 242 241 240 240 239 238 237 237 237 238 238 239 237 232 230 229 227 227 233 235 233 232 235 237 236 234 234 236 236 235
278 280 283 285 286 286 286 286 286 286 287 287 287 288 288 288 288 286 286 286 285 284 282 280 278 277 277 275 273 271 268 266 265 265 264 262 260 259 258 257 257 257 256 255 253 251 250 249 248 247 246 245 244 243 243 242 241 240 240 239 238 237 236 237 237 237 237 236 232 230 229 228 229 232 233 232 231 234 237 237 234 233 234 235 236
279 282 285 286 287 287 286 287 287 287 287 288 288 289 288 288 286 285 285 285 285 285 284 283 281 280 278 276 275 274 272 269 267 265 264 263 262 260 259 258 257 257 257 256 255 253 251 249 248 248 247 245 244 244 243 242 241 240 240 239 238 237 237 236 236 236 236 235 232 230 228 229 231 231 230 230 232 235 238 239 237 234 234 235 235
282 285 286 287 287 287 287 288 289 289 289 289 289 289 288 287 287 286 286 286 285 285 284 284 283 282 280 278 277 275 274 272 270 267 265 263 262 262 260 259 258 256 256 255 255 255 253 252 250 248 247 246 245 244 243 243 243 241 240 239 237 237 236 236 235 235 235 235 233 231 229 229 231 230 228 229 231 235 238 240 241 238 235 235 235
285 287 288 288 288 288 289 289 290 290 290 290 289 288 288 288 288 288 288 287 287 287 286 286 285 284 283 281 279 277 275 274 272 270 267 264 262 261 260 260 259 257 256 255 254 254 254 253 252 250 249 247 246 244 243 243 243 242 241 240 238 236 236 235 234 234 234 234 233 232 231 230 230 230 229 229 231 233 235 238 243 241 237 237 236
288 289 289 289 289 290 290 291 291 291 290 289 289 289 288 288 289 289 290 289 289 288 288 288 286 285 284 282 280 278 276 275 274 272 270 268 265 262 260 259 258 257 257 255 254 253 253 253 252 251 250 249 247 245 244 242 242 242 242 241 239 237 235 235 234 233 233 234 233 233 233 231 231 231 231 231 231 234 235 235 239 241 238 237 237
290 290 290 290 291 292 292 292 292 292 291 291 291 291 290 290 290 291 291 291 290 289 288 288 287 286 284 282 281 279 278 277 275 274 272 270 268 266 263 260 258 256 255 255 254 254 253 252 252 251 251 250 248 247 245 243 241 241 241 241 240 238 236 235 235 234 233 233 233 234 234 233 232 233 234 233 232 234 236 236 238 240 238 237 237
291 291 291 292 293 293 293 293 293 293 293 293 293 292 292 292 293 293 293 292 291 290 289 288 288 287 285 284 283 281 279 278 277 276 274 272 270 269 266 264 261 258 255 253 253 253 252 252 251 251 251 250 249 248 246 245 243 241 240 240 240 239 237 235 235 234 233 233 232 233 234 234 233 234 235 234 233 234 236 238 239 240 239 236 234
292 292 293 294 294 294 294 294 294 294 294 294 293 293 293 294 294 294 294 293 291 291 291 290 289 288 287 286 285 283 281 280 279 278 276 274 273 271 269 266 264 261 257 254 252 251 251 251 251 251 251 250 249 248 246 245 244 242 241 239 239 238 237 235 234 234 234 233 232 233 234 235 234 235 236 235 234 234 235 237 238 238 239 236 232
294 294 295 295 295 294 294 294 294 295 295 295 294 295 294 294 295 295 294 294 293 293 293 292 290 289 288 287 285 284 283 281 280 278 277 276 274 272 270 268 265 263 261 259 256 254 253 252 251 251 250 250 249 248 247 245 244 243 242 240 239 238 237 236 234 233 233 233 233 232 233 234 235 236 237 237 236 235 235 236 237 237 237 235 231
295 296 296 295 295 295 294 295 295 296 296 296 295 295 295 295 295 295 295 295 295 295 295 294 293 292 291 290 288 287 285 284 282 280 278 276 274 272 271 269 268 267 266 264 262 259 256 253 252 251 250 250 250 249 248 246 244 243 242 241 240 239 238 237 234 232 232 232 232 232 233 233 234 236 237 238 237 236 235 235 237 237 236 233 230
296 296 296 295 295 295 296 296 297 297 296 296 296 296 296 296 297 297 297 297 297 297 297 296 296 295 293 292 290 288 287 285 284 282 280 278 276 274 273 272 270 269 268 267 266 263 260 257 254 252 250 250 250 250 249 248 246 244 243 241 240 239 239 238 235 233 231 231 232 232 232 233 233 234 236 237 237 236 235 235 235 236 234 232 229
296 296 297 297 296 296 297 297 297 297 297 296 296 297 298 298 299 299 299 299 298 298 297 297 296 295 294 293 291 290 288 287 286 284 283 281 279 276 274 273 272 271 270 268 267 265 262 259 256 253 251 249 248 248 248 247 246 244 244 242 240 239 238 238 237 234 231 230 231 231 231 232 232 233 234 236 236 235 235 234 234 234 233 232 229
297 297 297 297 297 297 297 297 297 297 297 297 298 299 299 299 300 299 299 299 298 297 297 296 296 295 294 294 293 291 290 288 287 286 285 283 280 277 275 273 272 271 269 268 266 265 263 260 257 254 252 250 248 246 245 245 244 244 243 242 240 239 237 237 236 235 232 230 230 231 231 231 231 232 233 234 235 235 234 234 233 232 233 232 229
297 298 298 297 297 298 298 298 298 298 299 300 300 300 299 299 299 298 298 298 298 297 297 297 296 296 295 294 293 292 291 290 288 287 285 283 280 277 275 274 272 270 268 266 265 264 262 260 257 255 252 250 248 246 244 243 242 241 241 241 240 238 237 235 235 236 234 230 228 229 230 230 230 230 231 233 234 234 233 233 232 232 233 233 230
297 297 297 297 297 298 298 298 298 299 300 300 300 299 299 299 299 298 298 298 298 298 298 298 297 296 295 295 294 293 291 290 288 286 284 282 280 278 276 274 272 269 268 267 265 263 261 259 257 256 254 252 250 248 246 243 241 240 241 242 241 239 238 236 235 235 235 232 228 228 229 229 229 229 230 231 233 234 233 232 232 231 232 233 230
296 296 296 297 297 297 298 298 299 299 300 300 299 299 300 300 299 298 299 299 299 299 299 299 298 297 297 296 295 293 291 289 288 287 285 283 282 279 277 274 271 269 268 267 265 262 260 259 257 256 254 252 251 250 248 246 243 242 242 243 242 241 239 237 235 234 234 233 229 227 228 229 229 229 229 230 232 233 233 232 232 231 230 231 231
296 296 296 297 297 298 298 299 299 299 300 300 300 300 300 300 299 299 300 300 300 300 300 299 298 298 298 297 296 294 292 291 290 288 286 284 282 279 276 274 271 269 268 267 264 261 259 258 257 254 252 250 250 250 249 248 245 243 242 242 241 240 238 236 235 234 233 233 230 227 227 228 228 229 229 229 230 232 232 231 232 231 229 229 230
296 296 297 297 297 298 299 299 299 299 300 300 300 300 300 300 299 300 301 300 300 299 299 298 297 299 299 298 296 295 293 293 292 290 288 285 282 280 277 274 272 269 267 265 263 261 258 257 256 255 254 254 253 253 252 250 247 244 242 240 240 239 238 236 235 233 233 232 231 228 227 227 228 228 229 229 230 231 232 231 231 231 228 228 229
296 296 297 297 298 299 299 299 300 299 299 300 300 300 300 300 300 300 300 300 299 299 297 296 297 299 299 297 296 295 294 294 293 291 288 285 281 279 274 271 270 267 263 261 258 257 255 253 253 254 255 256 257 256 256 254 250 247 244 242 241 241 239 238 236 234 233 232 231 228 226 226 227 227 227 229 229 230 231 232 232 231 229 227 229
296 296 297 298 298 299 299 299 299 300 300 300 300 301 301 301 300 300 300 300 299 298 298 298 299 299 299 297 297 296 295 295 291 286 282 278 274 272 269 269 269 266 264 262 260 259 258 256 255 255 256 257 258 258 257 256 254 252 250 248 245 243 241 239 236 235 233 231 231 229 227 227 228 227 227 228 230 230 230 231 232 232 230 229 229
296 296 297 298 298 299 299 300 300 300 301 301 301 301 302 301 300 300 301 301 299 299 300 301 300 300 298 297 296 295 291 287 280 273 266 259 257 262 274 284 284 281 278 274 273 273 272 269 266 262 261 261 261 259 257 255 253 252 251 249 247 245 242 239 236 235 233 232 232 230 228 227 228 228 228 228 230 231 231 231 233 233 233 231 231
296 297 297 298 299 300 300 300 301 301 302 302 302 303 303 302 301 303 304 301 299 300 302 300 299 299 298 296 293 288 282 273 261 249 240 234 235 246 284 299 301 306 309 305 303 301 292 283 279 276 274 273 271 265 259 254 251 251 250 250 250 247 243 240 237 235 232 231 231 229 227 226 227 228 228 228 229 231 232 232 233 234 234 234 233
297 297 298 299 300 300 300 301 302 303 303 303 304 304 303 302 303 304 303 300 300 301 300 298 297 297 294 290 284 273 257 236 212 207 212 213 213 217 253 284 309 346 12 15 10 354 324 301 296 293 290 288 284 273 260 252 252 253 253 254 255 251 244 239 238 237 234 231 230 229 228 227 227 227 228 228 229 231 232 233 233 234 234 235 235
297 298 300 300 301 301 301 302 304 304 304 304 304 303 303 303 303 302 301 300 300 299 297 296 295 292 287 277 255 221 193 165 154 186 222 227 222 219 321 335 354 42 56 49 33 13 350 333 325 314 300 293 290 280 264 255 254 256 255 254 255 256 251 243 239 239 238 236 234 233 232 231 229 228 229 229 229 230 231 233 234 235 235 236 236
298 300 301 302 302 302 302 303 304 304 304 304 303 301 301 302 301 300 299 299 298 295 294 292 288 279 262 226 193 179 169 161 178 215 228 205 129 46 24 19 33 93 101 101 102 39 337 324 326 320 305 295 290 284 272 261 257 256 257 255 253 254 254 250 244 241 241 241 240 238 237 234 232 231 231 231 231 232 232 233 235 236 237 238 238
300 301 302 303 302 302 302 303 304 304 303 302 301 300 300 299 298 297 297 296 293 290 288 283 272 249 214 187 173 167 161 162 214 248 235 118 117 82 39 43 62 217 242 256 265 272 272 285 310 316 310 307 303 295 285 274 265 262 262 260 257 254 252 250 247 244 242 242 242 242 240 238 235 233 232 232 232 234 233 233 235 237 238 240 240
301 303 303 303 302 303 303 304 304 304 302 301 299 299 298 297 297 296 293 290 287 283 277 266 243 211 191 178 170 167 164 170 221 254 248 152 170 167 100 26 334 311 286 284 298 306 298 296 315 316 316 321 322 311 295 282 275 271 267 264 261 257 253 249 247 245 243 243 242 242 242 240 237 236 234 233 233 235 235 234 234 237 239 241 242
303 303 304 304 303 303 304 304 304 303 301 299 299 298 297 296 295 291 286 282 275 265 253 234 209 191 180 173 168 165 167 224 253 262 265 217 188 170 146 323 320 329 332 316 306 304 302 307 313 319 331 342 343 335 321 301 286 280 276 270 265 262 258 253 249 247 246 245 244 242 241 240 239 237 236 234 233 234 235 234 234 235 238 240 241
304 304 304 304 304 304 305 305 304 302 300 300 299 297 296 293 288 282 276 266 253 240 232 219 198 183 176 173 171 166 168 241 260 272 277 213 183 177 234 280 282 301 310 297 283 290 305 314 318 330 343 346 343 340 338 335 326 315 307 299 288 280 273 265 259 254 250 248 245 243 241 240 239 238 237 236 234 233 233 233 234 235 237 240 242
304 304 304 304 304 304 305 304 303 301 301 300 298 295 292 286 279 272 262 249 235 226 221 210 190 178 175 176 186 200 204 211 226 245 250 198 174 178 278 265 259 276 287 283 285 297 308 315 318 322 324 325 327 329 330 335 345 349 346 341 333 322 306 289 276 266 259 253 249 246 242 240 239 238 238 238 237 235 234 234 234 235 237 239 241
304 304 305 305 305 305 304 303 303 302 301 298 294 290 285 278 270 262 252 237 225 219 214 204 188 180 178 180 203 224 223 221 220 224 224 197 183 193 281 272 262 272 281 280 283 290 297 304 307 304 296 294 300 307 310 317 328 337 340 340 341 341 333 319 302 287 275 265 257 252 248 245 243 241 239 239 240 239 238 236 236 236 237 239 241
304 305 305 305 305 305 305 305 304 302 299 295 290 284 277 269 261 255 241 224 216 214 210 202 191 186 185 189 209 233 240 239 232 224 220 212 204 210 242 269 270 271 273 273 277 281 284 289 296 300 300 296 292 296 304 312 318 321 319 318 321 327 331 327 319 308 297 284 271 262 255 252 250 248 246 244 243 243 243 242 241 241 241 242 244
305 305 305 306 306 306 307 306 304 301 296 291 283 274 267 262 257 251 236 219 213 214 212 205 199 196 195 198 208 221 236 248 246 235 230 228 224 223 230 243 255 263 265 269 274 278 277 276 279 286 294 296 296 298 299 298 299 303 307 308 306 305 303 303 303 304 305 301 292 280 269 262 258 256 254 251 249 248 247 247 246 246 246 246 247
305 305 306 306 307 308 307 305 303 299 291 283 274 266 261 258 253 245 233 219 215 220 221 213 208 207 206 206 209 213 220 237 251 251 244 242 240 236 237 239 244 253 263 268 270 270 270 270 269 268 270 274 279 284 286 285 285 290 297 299 295 289 285 286 288 293 297 298 297 292 286 279 273 268 265 261 258 255 253 252 251 251 251 251 251
305 305 306 307 308 308 307 304 300 293 283 272 264 257 255 255 249 241 231 219 217 224 228 222 218 220 218 212 212 216 222 232 243 249 250 250 248 246 244 243 245 252 261 266 267 267 267 266 264 260 258 258 261 264 270 276 278 281 286 288 284 281 279 280 282 285 288 289 288 287 285 283 280 277 274 271 268 265 262 260 259 258 258 257 257
305 305 306 307 308 307 305 300 291 280 269 260 253 251 252 252 243 234 230 226 224 229 231 227 226 229 228 221 219 221 226 231 236 239 242 246 250 251 251 250 249 251 255 256 257 260 263 263 264 264 264 263 261 261 263 266 267 267 269 269 269 269 269 270 272 274 275 276 278 279 279 278 276 274 273 272 270 269 268 267 266 265 265 264 264
305 305 305 306 306 303 297 284 267 256 251 248 245 248 252 252 242 231 229 230 233 238 238 235 236 239 237 231 228 230 232 235 238 239 240 243 247 251 255 256 256 256 256 255 253 253 253 253 255 258 262 264 264 263 263 263 263 264 266 266 266 266 266 266 266 266 266 266 268 270 271 271 271 271 270 270 270 270 269 269 268 268 268 268 268
303 303 302 302 299 289 276 257 241 237 236 235 233 234 237 239 236 232 231 231 234 237 235 233 237 246 248 243 237 236 238 241 243 244 245 246 247 249 252 255 257 258 260 260 258 256 254 253 252 251 252 255 257 258 259 259 260 261 263 264 265 265 265 264 263 262 262 261 261 262 262 263 264 265 266 266 266 267 267 267 267 267 267 267 267
300 299 297 293 284 271 256 239 230 228 229 230 231 231 231 231 234 239 243 243 241 239 236 232 232 243 255 257 252 247 245 246 247 249 250 250 250 250 250 252 253 255 257 259 259 258 257 256 255 255 254 253 254 254 255 256 257 258 258 259 261 262 263 264 264 263 262 262 261 261 261 261 261 262 262 263 263 264 264 265 265 266 266 266 266
296 294 289 279 267 257 244 231 224 223 224 228 234 238 238 237 239 244 251 254 252 247 241 237 235 239 247 255 258 258 256 253 253 254 256 256 256 255 254 252 252 252 254 256 257 257 257 257 258 259 259 259 259 258 257 256 257 257 257 256 256 256 257 257 258 259 259 260 260 260 261 261 261 261 261 261 261 262 262 263 263 264 265 265 265
290 286 278 268 257 247 235 226 221 221 222 225 231 239 243 244 245 248 253 258 262 259 252 246 243 243 245 249 252 256 258 259 259 260 260 261 261 262 261 260 259 259 260 260 260 259 258 258 259 260 261 262 262 262 261 259 259 259 259 258 258 258 257 256 255 255 255 256 256 256 257 257 257 257 258 258 259 259 259 260 261 261 262 263 263
283 274 266 261 255 244 231 221 217 220 223 225 228 237 245 250 253 256 260 264 269 271 269 262 256 252 251 252 253 255 257 259 261 261 262 263 263 263 264 264 264 264 265 266 266 266 265 263 263 263 263 264 264 264 263 262 261 260 259 259 259 259 259 259 259 258 258 257 257 257 257 256 256 256 256 256 256 257 257 258 258 259 259 260 261
274 262 253 252 251 245 234 222 216 218 223 225 227 233 243 251 258 264 269 272 273 274 274 273 272 271 269 266 262 261 261 262 263 264 264 265 265 265 265 265 265 265 265 265 265 266 267 266 266 266 266 266 266 266 266 266 265 264 263 263 262 262 261 261 261 261 261 260 260 259 259 259 259 259 259 259 259 259 259 259 259 259 259 260 260
Height
10900 10899 10898 10898 10897 10896 10894 10892 10888 10886 10885 10884 10882 10881 10881 10879 10878 10876 10875 10873 10872 10870 10869 10869 10868 10867 10866 10865 10865 10864 10864 10865 10865 10866 10867 10868 10869 10870 10872 10873 10875 10877 10879 10880 10882 10884 10886 10888 10889 10890 10893 10895 10897 10899 10901 10903 10905 10907 10909 10911 10912 10914 10916 10917 10918 10919 10923 10926 10928 10929 10931 10932 10934 10935 10937 10939 10941 10943 10944 10944 10946 10948 10948 10950 10952
10895 10894 10893 10893 10893 10891 10890 10889 10886 10882 10881 10880 10878 10877 10876 10875 10873 10871 10870 10869 10867 10865 10864 10863 10862 10862 10861 10860 10859 10858 10858 10858 10859 10860 10860 10861 10862 10863 10865 10866 10868 10870 10871 10873 10874 10877 10879 10881 10882 10884 10887 10889 10891 10893 10895 10897 10899 10901 10903 10905 10906 10908 10910 10911 10912 10914 10916 10920 10922 10924 10926 10927 10928 10930 10931 10933 10935 10935 10933 10932 10933 10933 10935 10940 10944
10891 10891 10890 10889 10888 10886 10884 10884 10882 10879 10876 10875 10874 10872 10871 10870 10869 10867 10865 10864 10862 10861 10859 10858 10857 10856 10855 10854 10853 10852 10852 10851 10852 10853 10853 10854 10855 10856 10857 10859 10860 10862 10864 10865 10867 10869 10872 10874 10875 10877 10880 10882 10884 10886 10888 10890 10893 10894 10896 10899 10900 10902 10904 10906 10907 10908 10910 10913 10917 10918 10920 10922 10923 10925 10926 10927 10928 10928 10928 10930 10930 10929 10931 10935 10938
10888 10887 10887 10885 10883 10881 10879 10878 10876 10874 10872 10870 10868 10867 10866 10865 10863 10862 10860 10858 10857 10855 10854 10853 10852 10851 10850 10848 10847 10846 10846 10845 10846 10846 10846 10847 10848 10849 10850 10851 10853 10854 10856 10857 10859 10861 10864 10866 10868 10869 10872 10875 10877 10878 10881 10883 10885 10887 10889 10892 10894 10895 10898 10900 10902 10903 10904 10906 10910 10912 10914 10916 10918 10920 10921 10921 10922 10923 10924 10927 10928 10928 10929 10931 10933
10885 10883 10882 10881 10878 10877 10875 10873 10870 10869 10867 10865 10863 10861 10860 10859 10857 10856 10854 10852 10851 10850 10848 10847 10847 10845 10844 10843 10841 10840 10840 10840 10840 10840 10839 10839 10840 10841 10842 10843 10845 10846 10847 10848 10850 10852 10855 10857 10859 10861 10864 10866 10868 10870 10872 10875 10877 10880 10882 10885 10888 10889 10892 10893 10895 10897 10898 10898 10902 10907 10909 10911 10913 10915 10916 10916 10917 10918 10919 10920 10922 10924 10926 10928 10929
10881 10880 10878 10876 10874 10872 10870 10868 10865 10863 10861 10859 10857 10856 10854 10853 10852 10850 10848 10847 10845 10844 10843 10841 10840 10839 10838 10837 10835 10835 10834 10834 10833 10833 10833 10833 10833 10834 10834 10835 10836 10837 10838 10839 10841 10843 10846 10848 10850 10852 10855 10857 10859 10861 10863 10866 10869 10872 10875 10877 10880 10883 10885 10886 10887 10890 10891 10892 10895 10900 10903 10905 10907 10909 10910 10911 10912 10914 10914 10914 10916 10919 10921 10923 10925
10877 10876 10874 10872 10870 10868 10866 10863 10861 10858 10856 10854 10852 10850 10848 10847 10846 10845 10843 10841 10840 10838 10836 10835 10834 10833 10832 10831 10830 10829 10828 10827 10826 10826 10826 10827 10827 10827 10827 10827 10827 10828 10829 10831 10832 10834 10836 10838 10840 10842 10845 10847 10849 10851 10854 10857 10861 10864 10866 10869 10873 10876 10877 10878 10881 10883 10885 10886 10889 10892 10896 10900 10902 10903 10904 10906 10909 10910 10908 10907 10910 10913 10916 10919 10921
10874 10872 10870 10868 10865 10863 10861 10858 10856 10854 10852 10849 10847 10845 10843 10841 10839 10838 10836 10835 10834 10832 10831 10829 10827 10826 10824 10824 10823 10823 10822 10820 10819 10819 10819 10819 10819 10819 10819 10819 10819 10820 10821 10822 10824 10825 10826 10828 10830 10832 10834 10837 10840 10842 10844 10847 10851 10854 10857 10860 10865 10868 10870 10872 10874 10876 10878 10880 10882 10885 10889 10893 10896 10897 10898 10900 10901 10900 10900 10902 10905 10909 10911 10914 10917
10870 10868 10865 10863 10860 10858 10855 10853 10851 10849 10847 10845 10842 10840 10838 10836 10834 10832 10830 10828 10827 10825 10824 10822 10821 10819 10818 10817 10816 10815 10815 10814 10812 10812 10812 10812 10812 10811 10811 10811 10812 10812 10813 10814 10815 10816 10817 10819 10820 10822 10824 10827 10830 10832 10834 10837 10840 10844 10847 10851 10856 10860 10862 10865 10867 10870 10871 10873 10875 10878 10883 10887 10889 10891 10892 10893 10892 10892 10895 10898 10901 10902 10904 10909 10913
10865 10862 10860 10857 10855 10852 10850 10848 10846 10844 10841 10839 10836 10834 10832 10830 10828 10826 10824 10822 10820 10818 10817 10815 10814 10812 10811 10810 10809 10808 10807 10806 10805 10805 10804 10804 10803 10803 10803 10804 10804 10804 10805 10805 10806 10807 10808 10810 10811 10812 10814 10817 10819 10822 10824 10827 10830 10834 10836 10840 10846 10850 10854 10857 10860 10862 10864 10867 10869 10872 10877 10880 10882 10884 10886 10887 10887 10888 10890 10893 10894 10895 10899 10904 10907
10859 10856 10854 10851 10849 10847 10845 10843 10841 10838 10835 10833 10831 10829 10827 10825 10823 10820 10818 10816 10814 10812 10810 10808 10807 10805 10804 10803 10802 10801 10799 10798 10797 10797 10797 10796 10796 10795 10795 10795 10796 10796 10796 10796 10797 10797 10798 10800 10801 10803 10804 10807 10809 10811 10814 10817 10820 10823 10826 10830 10835 10841 10845 10849 10852 10854 10857 10860 10862 10866 10870 10873 10874 10877 10880 10880 10881 10883 10885 10888 10890 10890 10893 10897 10900
10853 10850 10848 10845 10843 10842 10840 10837 10835 10832 10830 10828 10826 10823 10821 10818 10816 10814 10812 10810 10808 10805 10803 10801 10799 10798 10797 10795 10794 10793 10791 10789 10789 10788 10788 10788 10788 10788 10787 10786 10787 10787 10787 10788 10788 10788 10789 10790 10791 10793 10795 10797 10799 10802 10805 10807 10810 10813 10816 10820 10825 10830 10835 10838 10842 10845 10849 10853 10856 10860 10863 10864 10866 10869 10872 10873 10875 10877 10880 10882 10883 10883 10885 10889 10892
10847 10844 10842 10839 10838 10836 10834 10831 10829 10826 10824 10822 10820 10817 10815 10812 10810 10808 10806 10804 10801 10799 10796 10794 10792 10790 10789 10787 10786 10784 10782 10781 10780 10780 10779 10779 10779 10779 10779 10779 10779 10778 10778 10778 10779 10779 10780 10780 10781 10783 10785 10787 10790 10793 10795 10797 10800 10803 10807 10810 10815 10819 10824 10828 10832 10836 10841 10845 10849 10852 10854 10856 10858 10861 10864 10866 10868 10871 10873 10875 10875 10876 10879 10881 10883
10841 10838 10836 10834 10832 10830 10827 10825 10822 10820 10817 10815 10813 10810 10808 10806 10803 10801 10800 10797 10795 10792 10790 10788 10785 10783 10781 10780 10778 10776 10774 10773 10772 10771 10771 10770 10770 10770 10770 10770 10770 10770 10770 10769 10769 10770 10770 10771 10772 10774 10775 10778 10781 10783 10785 10788 10790 10794 10798 10801 10805 10809 10813 10818 10823 10827 10831 10836 10841 10843 10844 10847 10851 10853 10855 10859 10862 10864 10866 10867 10869 10870 10872 10873 10876
10834 10832 10829 10827 10825 10823 10821 10819 10816 10813 10811 10808 10806 10803 10801 10799 10796 10795 10793 10790 10787 10785 10783 10781 10779 10776 10774 10772 10770 10768 10766 10765 10764 10762 10762 10761 10761 10761 10760 10760 10760 10760 10760 10760 10760 10760 10760 10761 10762 10764 10766 10769 10771 10773 10776 10778 10782 10785 10789 10792 10795 10799 10804 10809 10812 10817 10821 10827 10831 10834 10835 10838 10843 10845 10847 10852 10856 10857 10858 10860 10863 10865 10866 10867 10870
10827 10825 10823 10821 10819 10816 10814 10812 10809 10807 10804 10802 10799 10796 10794 10792 10790 10788 10786 10783 10780 10778 10776 10774 10771 10769 10767 10765 10763 10760 10758 10757 10755 10754 10752 10752 10752 10751 10750 10749 10749 10749 10749 10750 10750 10750 10750 10751 10753 10754 10756 10758 10760 10763 10766 10769 10773 10777 10780 10782 10785 10789 10794 10797 10801 10806 10811 10816 10821 10824 10827 10830 10835 10838 10840 10843 10847 10849 10850 10853 10856 10857 10859 10862 10865
10820 10818 10816 10814 10812 10810 10807 10805 10803 10800 10798 10795 10792 10790 10788 10785 10783 10781 10779 10776 10773 10770 10768 10766 10764 10762 10760 10758 10756 10753 10750 10749 10748 10746 10744 10743 10742 10741 10740 10739 10738 10738 10738 10739 10740 10741 10742 10743 10744 10745 10747 10748 10750 10753 10756 10760 10765 10768 10771 10773 10776 10780 10783 10786 10789 10795 10800 10805 10810 10815 10818 10822 10826 10830 10832 10835 10839 10840 10843 10846 10848 10849 10852 10857 10859
10814 10812 10810 10807 10805 10803 10801 10798 10796 10793 10791 10788 10785 10783 10781 10778 10776 10774 10771 10768 10765 10763 10760 10758 10756 10754 10752 10750 10748 10745 10742 10740 10739 10737 10736 10734 10733 10732 10730 10729 10728 10728 10728 10729 10731 10733 10734 10735 10735 10737 10738 10739 10741 10744 10747 10752 10757 10759 10761 10764 10767 10771 10773 10774 10779 10785 10790 10795 10800 10805 10809 10813 10817 10821 10823 10827 10830 10833 10836 10839 10839 10841 10846 10850 10851
10808 10805 10803 10801 10799 10796 10794 10792 10789 10787 10784 10782 10779 10777 10774 10771 10769 10766 10763 10761 10758 10755 10753 10750 10748 10745 10743 10741 10739 10737 10734 10731 10730 10728 10727 10726 10725 10723 10721 10720 10719 10720 10720 10721 10722 10724 10725 10726 10727 10729 10730 10731 10733 10736 10739 10744 10748 10750 10752 10755 10759 10761 10762 10765 10771 10777 10781 10786 10791 10795 10799 10803 10807 10811 10815 10818 10822 10825 10828 10830 10831 10835 10839 10842 10843
10801 10799 10797 10794 10792 10790 10787 10785 10783 10780 10778 10775 10773 10770 10767 10765 10762 10759 10756 10753 10751 10748 10745 10743 10740 10738 10735 10733 10731 10729 10726 10723 10721 10720 10719 10718 10717 10715 10714 10712 10712 10712 10713 10713 10714 10714 10716 10718 10719 10720 10722 10723 10725 10728 10731 10735 10738 10741 10743 10746 10749 10751 10752 10757 10763 10767 10772 10777 10781 10785 10790 10793 10798 10803 10806 10809 10814 10818 10820 10821 10824 10829 10832 10835 10837
10794 10792 10790 10788 10785 10783 10781 10778 10776 10774 10771 10769 10766 10763 10760 10758 10755 10752 10749 10746 10744 10741 10738 10736 10733 10730 10727 10725 10722 10720 10718 10716 10713 10712 10711 10710 10709 10708 10706 10705 10705 10705 10705 10705 10706 10707 10708 10710 10711 10712 10714 10716 10717 10720 10722 10725 10729 10732 10733 10735 10738 10740 10744 10749 10753 10757 10762 10768 10772 10776 10780 10784 10789 10794 10797 10801 10805 10809 10812 10814 10818 10822 10826 10828 10830
10787 10786 10784 10781 10779 10777 10775 10772 10770 10767 10764 10762 10759 10756 10754 10751 10748 10745 10743 10740 10737 10734 10731 10729 10726 10722 10719 10717 10715 10712 10710 10708 10707 10705 10704 10702 10701 10700 10699 10699 10699 10699 10698 10698 10700 10701 10702 10703 10703 10705 10707 10708 10709 10712 10714 10717 10721 10723 10723 10724 10728 10732 10736 10741 10744 10748 10754 10759 10763 10767 10771 10775 10780 10784 10788 10792 10797 10801 10805 10808 10813 10817 10819 10820 10822
10781 10780 10778 10775 10773 10771 10768 10765 10763 10761 10758 10756 10753 10749 10747 10745 10741 10739 10736 10734 10730 10727 10724 10721 10718 10715 10712 10710 10708 10705 10703 10701 10700 10698 10697 10696 10695 10694 10693 10693 10693 10692 10692 10693 10695 10695 10696 10696 10697 10699 10701 10702 10703 10705 10707 10710 10713 10715 10715 10717 10721 10725 10729 10734 10738 10741 10745 10750 10754 10759 10763 10766 10770 10775 10780 10785 10790 10794 10798 10802 10806 10809 10811 10811 10814
10775 10773 10771 10769 10767 10765 10762 10759 10756 10754 10752 10749 10746 10743 10741 10738 10734 10732 10730 10727 10724 10720 10716 10714 10711 10708 10706 10703 10701 10699 10697 10695 10693 10692 10691 10690 10689 10689 10688 10688 10688 10687 10687 10689 10690 10690 10691 10691 10693 10694 10696 10697 10698 10699 10701 10703 10706 10709 10711 10713 10715 10719 10724 10728 10730 10733 10737 10742 10746 10751 10754 10757 10762 10767 10773 10778 10782 10786 10790 10794 10797 10800 10802 10805 10809
10769 10767 10765 10763 10761 10758 10756 10753 10750 10748 10745 10743 10739 10736 10734 10731 10727 10725 10723 10720 10717 10713 10710 10706 10704 10702 10700 10697 10695 10693 10691 10690 10688 10687 10686 10685 10685 10684 10684 10684 10684 10684 10684 10685 10686 10686 10687 10688 10689 10690 10691 10692 10693 10694 10696 10698 10700 10703 10705 10706 10709 10712 10715 10718 10721 10725 10730 10734 10738 10742 10745 10750 10755 10760 10764 10770 10773 10776 10781 10785 10787 10790 10795 10799 10802
10763 10760 10758 10756 10754 10752 10749 10746 10743 10741 10738 10736 10733 10730 10728 10725 10721 10718 10716 10713 10709 10707 10703 10700 10697 10696 10694 10692 10690 10688 10686 10685 10684 10683 10682 10682 10681 10681 10681 10681 10681 10681 10681 10682 10682 10683 10684 10685 10685 10686 10687 10688 10689 10690 10691 10693 10695 10697 10699 10701 10703 10705 10708 10711 10714 10719 10723 10726 10730 10734 10738 10742 10746 10749 10754 10760 10764 10767 10772 10776 10780 10784 10789 10793 10794
10757 10754 10752 10750 10747 10745 10742 10739 10737 10734 10731 10729 10726 10724 10721 10718 10714 10711 10709 10706 10703 10700 10697 10694 10692 10691 10689 10687 10685 10684 10683 10682 10681 10680 10680 10679 10679 10679 10679 10679 10679 10679 10679 10679 10679 10680 10681 10681 10682 10683 10684 10685 10686 10687 10688 10689 10691 10693 10695 10696 10698 10700 10703 10706 10710 10713 10716 10719 10723 10726 10729 10732 10735 10740 10746 10751 10755 10759 10765 10769 10773 10778 10782 10785 10786
10751 10748 10746 10744 10741 10738 10736 10733 10730 10727 10725 10722 10720 10717 10714 10711 10708 10705 10702 10699 10696 10694 10692 10689 10688 10686 10684 10683 10681 10680 10679 10679 10678 10678 10677 10677 10677 10677 10677 10677 10677 10677 10677 10677 10677 10677 10678 10679 10679 10680 10681 10682 10683 10684 10685 10686 10687 10689 10690 10692 10693 10695 10697 10700 10704 10706 10709 10712 10715 10718 10722 10726 10730 10735 10740 10744 10748 10753 10758 10762 10766 10770 10774 10777 10779
10744 10742 10740 10738 10735 10733 10730 10727 10724 10721 10718 10716 10713 10711 10708 10704 10701 10699 10697 10693 10690 10688 10686 10685 10683 10682 10681 10679 10678 10677 10677 10676 10676 10676 10675 10675 10675 10675 10675 10676 10676 10676 10676 10676 10676 10676 10677 10677 10678 10678 10679 10680 10680 10681 10682 10682 10683 10685 10686 10687 10688 10690 10692 10695 10697 10699 10702 10706 10710 10713 10717 10721 10724 10729 10734 10738 10743 10747 10752 10756 10759 10762 10766 10769 10771
10738 10735 10734 10732 10729 10726 10723 10720 10717 10715 10712 10709 10706 10704 10702 10698 10695 10693 10692 10688 10685 10683 10682 10680 10679 10678 10677 10676 10676 10675 10675 10675 10674 10674 10674 10674 10674 10674 10674 10674 10675 10675 10675 10675 10675 10676 10676 10676 10677 10677 10677 10678 10678 10679 10680 10680 10680 10681 10682 10683 10685 10685 10687 10689 10690 10692 10696 10699 10701 10704 10709 10712 10716 10721 10727 10732 10736 10741 10745 10748 10751 10754 10757 10759 10762
10732 10729 10728 10725 10723 10720 10717 10714 10711 10709 10706 10703 10700 10697 10695 10693 10690 10688 10686 10683 10681 10680 10678 10677 10676 10676 10675 10674 10674 10674 10673 10673 10673 10673 10673 10673 10673 10673 10673 10673 10674 10674 10674 10675 10675 10675 10675 10675 10675 10676 10676 10676 10677 10677 10677 10677 10677 10678 10679 10680 10681 10680 10682 10685 10686 10687 10690 10693 10694 10698 10702 10705 10709 10715 10720 10725 10729 10733 10737 10740 10743 10746 10748 10750 10753
10726 10724 10722 10719 10716 10713 10710 10708 10706 10703 10700 10697 10694 10691 10689 10687 10685 10683 10681 10679 10677 10676 10675 10674 10674 10673 10673 10673 10673 10673 10672 10672 10672 10672 10672 10672 10672 10672 10673 10673 10673 10674 10674 10674 10674 10675 10675 10675 10675 10675 10675 10675 10675 10675 10675 10674 10675 10675 10676 10677 10678 10676 10678 10682 10683 10683 10685 10688 10691 10696 10699 10701 10705 10709 10713 10717 10722 10725 10729 10732 10735 10738 10741 10743 10745
10721 10718 10716 10713 10710 10707 10704 10702 10700 10697 10694 10692 10689 10686 10684 10682 10680 10678 10677 10676 10674 10673 10672 10672 10672 10672 10672 10672 10672 10672 10672 10672 10671 10671 10671 10672 10672 10672 10673 10673 10673 10673 10673 10673 10673 10673 10674 10674 10674 10674 10674 10674 10674 10674 10673 10673 10673 10673 10673 10674 10675 10674 10675 10677 10678 10679 10680 10683 10687 10690 10693 10696 10700 10704 10708 10712 10716 10719 10723 10726 10728 10731 10733 10735 10737
10715 10712 10710 10707 10704 10701 10698 10696 10694 10692 10689 10686 10684 10681 10679 10677 10676 10675 10673 10672 10671 10670 10670 10670 10670 10670 10670 10671 10671 10671 10671 10671 10671 10670 10671 10672 10672 10672 10673 10673 10673 10673 10673 10672 10672 10672 10673 10673 10673 10673 10673 10673 10673 10673 10672 10671 10671 10671 10671 10671 10671 10671 10672 10672 10673 10675 10676 10678 10681 10684 10687 10690 10694 10697 10701 10705 10709 10712 10715 10718 10720 10724 10726 10728 10731
10709 10706 10704 10701 10698 10695 10693 10691 10689 10686 10684 10681 10679 10676 10674 10673 10672 10671 10670 10669 10668 10668 10668 10668 10669 10669 10670 10670 10670 10670 10670 10670 10670 10670 10671 10672 10672 10672 10672 10672 10672 10673 10672 10672 10672 10672 10672 10672 10672 10672 10671 10671 10671 10670 10669 10668 10667 10667 10667 10667 10667 10667 10667 10667 10668 10670 10671 10673 10675 10678 10681 10683 10686 10690 10694 10697 10701 10704 10707 10709 10713 10717 10720 10721 10722
10703 10700 10698 10695 10692 10690 10688 10686 10683 10681 10678 10676 10674 10672 10671 10670 10669 10668 10667 10666 10666 10666 10666 10667 10667 10668 10669 10670 10670 10670 10670 10669 10669 10670 10671 10671 10671 10672 10672 10672 10672 10672 10672 10672 10671 10671 10671 10671 10671 10671 10670 10669 10669 10667 10666 10665 10664 10664 10664 10664 10663 10663 10663 10664 10665 10666 10667 10668 10670 10672 10674 10677 10680 10683 10685 10688 10691 10695 10697 10699 10704 10708 10709 10709 10709
10697 10695 10692 10690 10687 10685 10683 10681 10678 10676 10673 10671 10670 10668 10668 10666 10665 10664 10664 10664 10664 10664 10664 10665 10666 10668 10668 10669 10669 10669 10669 10669 10669 10670 10670 10670 10671 10671 10672 10672 10672 10671 10671 10671 10671 10670 10671 10670 10670 10670 10669 10668 10667 10666 10665 10663 10662 10661 10661 10661 10660 10660 10661 10661 10662 10663 10663 10664 10665 10667 10669 10671 10673 10675 10677 10679 10682 10685 10687 10690 10695 10699 10699 10698 10698
10691 10689 10687 10684 10682 10680 10678 10676 10673 10671 10669 10668 10666 10665 10664 10663 10662 10662 10662 10662 10662 10662 10662 10664 10665 10667 10667 10668 10668 10668 10668 10668 10669 10669 10669 10670 10670 10671 10671 10671 10671 10670 10670 10670 10670 10670 10670 10670 10669 10669 10668 10667 10667 10666 10664 10663 10662 10661 10660 10659 10659 10659 10659 10659 10659 10660 10660 10661 10662 10663 10664 10665 10666 10668 10670 10672 10675 10678 10680 10683 10686 10687 10687 10687 10687
10687 10684 10682 10679 10677 10675 10673 10671 10669 10667 10666 10664 10663 10662 10661 10660 10659 10659 10660 10660 10660 10660 10661 10662 10663 10665 10666 10667 10666 10666 10665 10666 10667 10668 10669 10669 10670 10670 10670 10670 10670 10669 10669 10669 10669 10669 10669 10668 10668 10668 10667 10666 10665 10665 10663 10662 10662 10661 10660 10659 10658 10658 10658 10657 10657 10657 10657 10658 10658 10659 10660 10661 10661 10662 10664 10666 10668 10671 10674 10676 10677 10677 10677 10677 10678
10682 10679 10677 10675 10673 10671 10669 10667 10665 10664 10662 10661 10660 10659 10658 10657 10657 10657 10658 10658 10658 10659 10659 10660 10662 10663 10665 10665 10665 10664 10664 10665 10666 10667 10668 10669 10669 10670 10670 10670 10669 10668 10668 10668 10667 10667 10667 10667 10666 10666 10665 10664 10664 10663 10662 10662 10661 10660 10659 10658 10658 10657 10657 10657 10656 10656 10655 10655 10656 10656 10656 10657 10658 10659 10660 10662 10664 10666 10667 10669 10670 10671 10671 10672 10672
10677 10675 10673 10670 10668 10666 10665 10663 10662 10660 10659 10658 10657 10656 10655 10655 10655 10656 10657 10657 10657 10657 10658 10658 10660 10662 10663 10664 10664 10664 10664 10664 10665 10666 10667 10668 10668 10668 10668 10668 10668 10668 10667 10667 10666 10665 10665 10665 10664 10664 10663 10662 10662 10661 10661 10660 10660 10659 10658 10658 10657 10656 10656 10656 10656 10655 10655 10654 10654 10654 10654 10654 10655 10655 10656 10657 10658 10660 10661 10661 10662 10663 10663 10664 10664
10673 10671 10668 10666 10665 10663 10661 10660 10658 10657 10657 10656 10655 10654 10653 10653 10653 10654 10655 10656 10656 10655 10656 10658 10659 10660 10661 10662 10662 10663 10663 10663 10663 10664 10665 10666 10666 10666 10666 10666 10666 10666 10666 10665 10664 10664 10663 10663 10662 10662 10661 10661 10660 10659 10659 10658 10658 10657 10657 10656 10655 10655 10655 10655 10654 10654 10653 10653 10653 10652 10652 10652 10652 10652 10652 10652 10653 10653 10654 10654 10655 10655 10655 10655 10655
10669 10667 10665 10663 10661 10660 10658 10657 10656 10655 10654 10653 10653 10652 10652 10652 10653 10653 10654 10655 10655 10654 10655 10657 10658 10659 10659 10660 10661 10661 10662 10662 10662 10662 10663 10663 10663 10663 10663 10663 10664 10664 10664 10664 10663 10662 10661 10660 10660 10660 10659 10659 10658 10657 10656 10656 10655 10655 10654 10654 10653 10653 10653 10652 10652 10652 10651 10651 10650 10650 10650 10649 10649 10648 10648 10648 10648 10648 10648 10648 10648 10647 10647 10647 10646
10665 10663 10662 10660 10659 10658 10656 10655 10654 10653 10652 10651 10651 10651 10651 10651 10653 10653 10653 10654 10653 10654 10655 10656 10657 10657 10658 10659 10659 10659 10660 10660 10660 10661 10661 10661 10661 10661 10661 10661 10661 10661 10661 10661 10661 10660 10659 10658 10658 10657 10656 10656 10656 10655 10654 10653 10653 10652 10651 10651 10651 10650 10650 10650 10649 10649 10648 10647 10647 10646 10646 10645 10645 10644 10644 10643 10643 10642 10642 10642 10641 10640 10640 10639 10638
10662 10660 10659 10658 10657 10656 10655 10653 10652 10651 10651 10650 10650 10650 10650 10651 10652 10652 10652 10652 10652 10653 10654 10654 10655 10655 10656 10656 10657 10657 10657 10658 10658 10658 10658 10659 10659 10659 10659 10658 10658 10658 10658 10658 10658 10657 10657 10656 10655 10654 10653 10653 10652 10652 10651 10650 10649 10648 10648 10647 10646 10646 10646 10645 10645 10644 10644 10643 10642 10642 10641 10640 10639 10639 10638 10637 10636 10636 10635 10634 10633 10633 10631 10630 10629
10659 10657 10656 10655 10655 10654 10653 10652 10651 10650 10650 10649 10649 10649 10649 10649 10650 10650 10651 10651 10651 10651 10652 10652 10653 10653 10653 10653 10654 10654 10654 10655 10655 10655 10655 10656 10656 10656 10656 10655 10655 10655 10655 10654 10654 10653 10653 10652 10652 10651 10650 10649 10649 10648 10647 10646 10645 10645 10644 10643 10642 10641 10640 10640 10639 10638 10638 10637 10636 10636 10635 10634 10633 10632 10631 10630 10629 10628 10627 10626 10625 10624 10622 10621 10619
10655 10654 10653 10653 10652 10652 10651 10650 10649 10649 10649 10648 10648 10648 10648 10648 10648 10648 10649 10649 10649 10650 10650 10650 10651 10651 10650 10650 10651 10651 10651 10652 10652 10652 10652 10652 10652 10652 10652 10652 10651 10651 10651 10650 10650 10649 10648 10648 10647 10647 10646 10645 10645 10644 10643 10642 10642 10641 10640 10639 10638 10637 10636 10635 10634 10633 10632 10631 10630 10629 10628 10627 10626 10625 10624 10623 10622 10621 10619 10618 10616 10615 10613 10611 10610
10652 10651 10651 10650 10650 10650 10649 10648 10648 10648 10648 10647 10647 10647 10647 10647 10647 10647 10647 10647 10648 10649 10648 10648 10649 10649 10648 10648 10648 10648 10648 10648 10648 10648 10648 10648 10648 10648 10647 10647 10647 10647 10646 10646 10645 10644 10644 10643 10642 10641 10641 10640 10639 10638 10638 10637 10636 10635 10635 10634 10633 10632 10631 10629 10628 10627 10626 10625 10624 10623 10621 10620 10619 10618 10616 10615 10613 10612 10610 10608 10607 10605 10603 10601 10599
10649 10648 10648 10647 10647 10647 10647 10647 10647 10646 10646 10646 10646 10646 10646 10646 10646 10646 10645 10645 10646 10646 10646 10646 10646 10646 10645 10645 10645 10644 10644 10644 10644 10644 10644 10644 10643 10643 10642 10642 10642 10642 10641 10640 10639 10639 10638 10638 10637 10636 10635 10634 10633 10632 10631 10630 10630 10629 10628 10627 10626 10625 10623 10622 10621 10620 10618 10617 10616 10615 10613 10612 10610 10609 10607 10606 10604 10602 10600 10598 10596 10594 10592 10590 10588
10646 10646 10645 10645 10645 10645 10645 10645 10645 10645 10645 10645 10645 10645 10645 10644 10644 10644 10643 10643 10643 10643 10643 10643 10643 10642 10642 10642 10642 10641 10641 10641 10641 10640 10640 10639 10639 10638 10638 10637 10637 10636 10635 10634 10633 10633 10632 10631 10631 10630 10629 10628 10627 10625 10625 10623 10622 10622 10620 10619 10618 10616 10615 10613 10612 10611 10609 10608 10606 10605 10604 10602 10600 10599 10597 10595 10593 10591 10589 10587 10585 10582 10580 10578 10575
10644 10643 10643 10642 10642 10642 10643 10643 10644 10644 10644 10643 10644 10644 10643 10643 10643 10642 10642 10642 10641 10641 10640 10640 10639 10639 10639 10638 10638 10638 10638 10637 10637 10636 10635 10635 10634 10633 10632 10632 10631 10630 10629 10628 10627 10626 10625 10625 10624 10623 10622 10621 10620 10619 10617 10616 10615 10614 10613 10611 10610 10608 10606 10604 10603 10601 10600 10598 10597 10595 10593 10592 10590 10588 10586 10584 10582 10580 10578 10575 10573 10570 10568 10565 10562